Location: NCO
(38.4404°N, 77.1340°W)
Time: 13:43:58
(UTC-04:00)

Mayak - Visible Passes

Search period start: 17 July 2018 00:00
Search period end: 27 July 2018 00:00
Orbit: 582 x 605 km, 97.6° (Epoch: 17 July)

Date Brightness Start Highest point End Pass type
(mag) Time Alt. Az. Time Alt. Az. Time Alt. Az.
17 Jul 0.2 00:25:12 10° NNE 00:27:36 34° NNE 00:27:36 34° NNE visible
18 Jul 0.3 00:34:22 10° N 00:36:48 35° N 00:36:48 35° N visible
19 Jul 0.4 00:43:34 10° N 00:46:01 33° NNW 00:46:01 33° NNW visible
20 Jul 0.5 00:52:49 10° N 00:55:13 30° NNW 00:55:13 30° NNW visible
20 Jul 1.3 23:27:25 10° NE 23:27:48 12° NE 23:27:48 12° NE visible
21 Jul 0.7 01:02:06 10° N 01:04:25 26° NNW 01:04:25 26° NNW visible
21 Jul 1.2 23:36:09 10° NE 23:37:01 14° NE 23:37:01 14° NE visible
22 Jul 0.9 01:11:27 10° NNW 01:13:37 22° NW 01:13:37 22° NW visible
22 Jul 1.0 23:45:01 10° NE 23:46:13 17° NE 23:46:13 17° NE visible
23 Jul 1.1 01:20:51 10° NNW 01:22:49 19° NW 01:22:49 19° NW visible
23 Jul 0.9 23:53:57 10° NNE 23:55:24 19° NE 23:55:24 19° NE visible
24 Jul 1.3 01:30:22 10° NNW 01:32:01 16° NW 01:32:01 16° NW visible
25 Jul 0.8 00:02:57 10° NNE 00:04:35 22° NE 00:04:35 22° NE visible
25 Jul 1.4 01:40:01 10° NW 01:41:12 13° NW 01:41:12 13° NW visible
26 Jul 0.7 00:12:01 10° NNE 00:13:47 24° NNE 00:13:47 24° NNE visible
26 Jul 1.6 01:50:05 10° NW 01:50:23 10° NW 01:50:23 10° NW visible
